Погода в Сусе

Тунис     35°51′35″N   10°35′53″E
темп.,
°C
ветер,
м/с
пор.,
м/с
влажн.,
%
обл.,
%
осадки,
мм/ч
давл.,
гПа
погр.,
м
19 мая, ср
ср1901:00+21всв334782 0.0 1017266
04:00+20ю01485 0.0 101796
07:00+21ссв11431 0.0 1018212
10:00+26ссв33340 0.0 1018612
13:00+29всв43234 0.0 1017886
16:00+29всв651966 0.0 1016815
19:00+24св794197 0.0 1017539
22:00+21с8124346 0.1 1020642
20 мая, чт
чт2001:00+20ссз8125085 0.3 1019629
04:00+18ссз9146068 0.3 1019626
07:00+18ссз913504 0.3 1021747
10:00+23ссз1012314 0.0 10211250
13:00+27ссз9102013 0.0 10201988
16:00+27ссз9102461 0.0 10192027
19:00+23ссз1011315 0.0 10201365
22:00+19ссз913447 0.0 1022716
21 мая, пт
пт2101:00+17ссз81453100 0.0 1021589
04:00+16с5961100 0.0 1021460
07:00+17ссз4557100 0.0 1022456
10:00+21ссв22381 0.0 1022913
13:00+24всв32285 0.0 10201262
16:00+25в642920 0.0 1018765
19:00+22юв77397 0.0 1018552
22:00+20ююв575265 0.0 1020366
22 мая, сб
сб2201:00+19ю586067 0.0 1018344
04:00+18ю6106435 0.0 1016303
07:00+20ю7105436 0.0 1016364
10:00+28ю89253 0.0 1016721
13:00+34ююз77165 0.0 10141358
16:00+36ююв87155 0.0 10121499
19:00+27ююв89352 0.0 1013402
22:00+24юв23462 0.0 1016204
23 мая, вс
вс2301:00+22юв33564 0.0 1015140
04:00+21ю226289 0.0 101589
07:00+23вюв11506 0.0 1016164
10:00+29в223025 0.0 1016578
13:00+33в552621 0.0 1015968
16:00+35юв77205 0.0 1014992
19:00+30юв682598 0.0 1014394
22:00+26вюв3636100 0.0 1017238